Hourly Weather Chachagui

Today, 25 June, Friday

Time Temperature Precipitation Wind Pressure Humidity
00:00 +14°C° 0 mm 1 mps 606 mmHg 91%
01:00 +14°C° 0 mm 1 mps 605 mmHg 91%
02:00 +14°C° 0 mm 1 mps 605 mmHg 91%
03:00 +13°C° 0 mm 1 mps 605 mmHg 90%
04:00 +13°C° 0 mm 2 mps 605 mmHg 90%
05:00 +13°C° 0 mm 2 mps 605 mmHg 89%
06:00 +14°C° 0 mm 2 mps 605 mmHg 88%
07:00 +14°C° 0 mm 2 mps 605 mmHg 88%
08:00 +16°C° 0 mm 1 mps 606 mmHg 78%
09:00 +20°C° 0 mm 1 mps 607 mmHg 69%
10:00 +22°C° 0 mm 1 mps 608 mmHg 59%
11:00 +22°C° 0.3 mm 1 mps 607 mmHg 62%
12:00 +22°C° 0.3 mm 1 mps 607 mmHg 66%
13:00 +22°C° 0.3 mm 1 mps 606 mmHg 69%
14:00 +22°C° 1.2 mm 1 mps 606 mmHg 72%
15:00 +21°C° 1.2 mm 1 mps 605 mmHg 76%
16:00 +21°C° 1.2 mm 1 mps 605 mmHg 79%
17:00 +19°C° 1.2 mm 1 mps 605 mmHg 84%
18:00 +18°C° 1.2 mm 1 mps 605 mmHg 89%
19:00 +15°C° 1.2 mm 1 mps 605 mmHg 94%
20:00 +15°C° 0.3 mm 1 mps 605 mmHg 93%
21:00 +15°C° 0.3 mm 1 mps 605 mmHg 92%
22:00 +14°C° 0.3 mm 2 mps 606 mmHg 91%
23:00 +14°C° 0.3 mm 2 mps 605 mmHg 91%

Tomorrow, 26 June, Saturday

Time Temperature Precipitation Wind Pressure Humidity
00:00 +14°C° 0.3 mm 2 mps 605 mmHg 91%
01:00 +14°C° 0.3 mm 2 mps 605 mmHg 91%
02:00 +14°C° 0.1 mm 1 mps 605 mmHg 91%
03:00 +13°C° 0.1 mm 1 mps 604 mmHg 91%
04:00 +13°C° 0.1 mm 1 mps 604 mmHg 91%
05:00 +13°C° 0 mm 1 mps 604 mmHg 90%
06:00 +14°C° 0 mm 1 mps 605 mmHg 89%
07:00 +14°C° 0 mm 1 mps 605 mmHg 89%
08:00 +16°C° 0.1 mm 1 mps 606 mmHg 82%
09:00 +19°C° 0.1 mm 1 mps 607 mmHg 76%
10:00 +21°C° 0.1 mm 1 mps 607 mmHg 70%
11:00 +21°C° 0.6 mm 1 mps 607 mmHg 71%
12:00 +22°C° 0.6 mm 1 mps 606 mmHg 72%
13:00 +22°C° 0.6 mm 1 mps 606 mmHg 73%
14:00 +21°C° 1.1 mm 1 mps 605 mmHg 76%
15:00 +21°C° 1.1 mm 1 mps 605 mmHg 79%
16:00 +20°C° 1.1 mm 1 mps 604 mmHg 82%
17:00 +19°C° 1 mm 1 mps 604 mmHg 86%
18:00 +18°C° 1 mm 1 mps 605 mmHg 90%
19:00 +15°C° 1 mm 1 mps 605 mmHg 95%
20:00 +15°C° 0.3 mm 1 mps 605 mmHg 94%
21:00 +15°C° 0.3 mm 1 mps 605 mmHg 93%
22:00 +14°C° 0.3 mm 2 mps 605 mmHg 92%
23:00 +14°C° 0 mm 2 mps 605 mmHg 92%

Day after tomorrow, 27 June, Sunday

Time Temperature Precipitation Wind Pressure Humidity
00:00 +14°C° 0 mm 2 mps 605 mmHg 91%
01:00 +14°C° 0 mm 2 mps 605 mmHg 90%
02:00 +13°C° 0 mm 2 mps 604 mmHg 90%
03:00 +13°C° 0 mm 2 mps 604 mmHg 89%
04:00 +13°C° 0 mm 2 mps 604 mmHg 89%
05:00 +13°C° 0 mm 2 mps 604 mmHg 88%
06:00 +14°C° 0 mm 2 mps 604 mmHg 87%
07:00 +15°C° 0 mm 2 mps 605 mmHg 86%
08:00 +16°C° 0 mm 1 mps 605 mmHg 83%
09:00 +18°C° 0 mm 1 mps 606 mmHg 80%
10:00 +19°C° 0 mm 1 mps 607 mmHg 77%
11:00 +19°C° 0.1 mm 1 mps 606 mmHg 77%
12:00 +19°C° 0.1 mm 1 mps 606 mmHg 78%
13:00 +19°C° 0.1 mm 1 mps 605 mmHg 78%
14:00 +19°C° 0.1 mm 1 mps 605 mmHg 77%
15:00 +20°C° 0.1 mm 1 mps 605 mmHg 76%
16:00 +20°C° 0.1 mm 1 mps 605 mmHg 75%
17:00 +19°C° 0.2 mm 1 mps 605 mmHg 80%
18:00 +18°C° 0.2 mm 1 mps 605 mmHg 85%
19:00 +16°C° 0.2 mm 1 mps 605 mmHg 90%
20:00 +16°C° 0.1 mm 1 mps 605 mmHg 90%
21:00 +15°C° 0.1 mm 1 mps 605 mmHg 90%
22:00 +15°C° 0.1 mm 1 mps 606 mmHg 90%
23:00 +15°C° 0 mm 1 mps 605 mmHg 90%

28 June, Monday

Time Temperature Precipitation Wind Pressure Humidity
00:00 +14°C° 0 mm 1 mps 605 mmHg 90%
01:00 +14°C° 0 mm 2 mps 605 mmHg 91%
02:00 +14°C° 0 mm 2 mps 605 mmHg 90%
03:00 +14°C° 0 mm 2 mps 605 mmHg 89%
04:00 +14°C° 0 mm 2 mps 605 mmHg 89%
05:00 +14°C° 0 mm 2 mps 605 mmHg 88%
06:00 +14°C° 0 mm 2 mps 605 mmHg 87%
07:00 +14°C° 0 mm 2 mps 606 mmHg 86%
08:00 +16°C° 0 mm 2 mps 606 mmHg 82%
09:00 +18°C° 0 mm 1 mps 607 mmHg 77%
10:00 +20°C° 0 mm 1 mps 607 mmHg 72%
11:00 +20°C° 0.2 mm 1 mps 607 mmHg 74%
12:00 +19°C° 0.2 mm 1 mps 607 mmHg 77%
13:00 +19°C° 0.2 mm 1 mps 606 mmHg 79%
14:00 +19°C° 0.3 mm 1 mps 606 mmHg 81%
15:00 +17°C° 0.3 mm 2 mps 605 mmHg 84%
16:00 +17°C° 0.3 mm 2 mps 605 mmHg 86%
17:00 +16°C° 0.1 mm 2 mps 605 mmHg 86%
18:00 +16°C° 0.1 mm 2 mps 606 mmHg 86%
19:00 +16°C° 0.1 mm 2 mps 606 mmHg 87%
20:00 +16°C° 0.2 mm 2 mps 606 mmHg 87%
21:00 +15°C° 0.2 mm 2 mps 606 mmHg 87%
22:00 +15°C° 0.2 mm 2 mps 606 mmHg 87%
23:00 +15°C° 0.1 mm 2 mps 606 mmHg 87%

29 June, Tuesday

Time Temperature Precipitation Wind Pressure Humidity
00:00 +15°C° 0.1 mm 2 mps 606 mmHg 87%
01:00 +15°C° 0.1 mm 2 mps 606 mmHg 87%
02:00 +15°C° 0.3 mm 2 mps 606 mmHg 87%
03:00 +15°C° 0.3 mm 2 mps 606 mmHg 87%
04:00 +15°C° 0.3 mm 2 mps 606 mmHg 87%
05:00 +15°C° 0.3 mm 2 mps 606 mmHg 87%
06:00 +15°C° 0.3 mm 2 mps 606 mmHg 87%
07:00 +15°C° 0.3 mm 2 mps 607 mmHg 87%
08:00 +16°C° 0.1 mm 2 mps 607 mmHg 84%
09:00 +17°C° 0.1 mm 2 mps 607 mmHg 81%
10:00 +18°C° 0.1 mm 2 mps 608 mmHg 78%
11:00 +18°C° 0.4 mm 2 mps 607 mmHg 79%
12:00 +18°C° 0.4 mm 2 mps 607 mmHg 79%
13:00 +18°C° 0.4 mm 2 mps 607 mmHg 80%
14:00 +18°C° 0.2 mm 2 mps 606 mmHg 81%
15:00 +18°C° 0.2 mm 2 mps 606 mmHg 82%
16:00 +17°C° 0.2 mm 2 mps 605 mmHg 83%
17:00 +17°C° 0 mm 2 mps 606 mmHg 84%
18:00 +16°C° 0 mm 2 mps 606 mmHg 86%
19:00 +14°C° 0 mm 3 mps 606 mmHg 87%
20:00 +14°C° 0 mm 3 mps 606 mmHg 87%
21:00 +14°C° 0 mm 3 mps 606 mmHg 87%
22:00 +14°C° 0 mm 3 mps 607 mmHg 87%
23:00 +15°C° 0 mm 2 mps 606 mmHg 87%

30 June, Wednesday

Time Temperature Precipitation Wind Pressure Humidity
00:00 +15°C° 0 mm 2 mps 606 mmHg 86%
01:00 +15°C° 0 mm 2 mps 606 mmHg 86%
02:00 +15°C° 0 mm 2 mps 605 mmHg 86%
03:00 +15°C° 0 mm 2 mps 605 mmHg 86%
04:00 +15°C° 0 mm 2 mps 605 mmHg 86%
05:00 +15°C° 0.1 mm 2 mps 605 mmHg 86%
06:00 +15°C° 0.1 mm 2 mps 605 mmHg 86%
07:00 +15°C° 0.1 mm 2 mps 606 mmHg 86%
08:00 +16°C° 0.1 mm 2 mps 606 mmHg 84%
09:00 +18°C° 0.1 mm 1 mps 606 mmHg 81%
10:00 +19°C° 0.1 mm 1 mps 607 mmHg 79%
11:00 +19°C° 0.3 mm 1 mps 607 mmHg 79%
12:00 +19°C° 0.3 mm 1 mps 606 mmHg 79%
13:00 +19°C° 0.3 mm 1 mps 606 mmHg 79%
14:00 +19°C° 0.5 mm 1 mps 606 mmHg 81%
15:00 +18°C° 0.5 mm 1 mps 605 mmHg 83%
16:00 +18°C° 0.5 mm 1 mps 605 mmHg 85%
17:00 +18°C° 0.6 mm 1 mps 605 mmHg 86%
18:00 +16°C° 0.6 mm 2 mps 605 mmHg 87%
19:00 +16°C° 0.6 mm 2 mps 605 mmHg 88%
20:00 +15°C° 0.1 mm 2 mps 606 mmHg 88%
21:00 +15°C° 0.1 mm 2 mps 606 mmHg 88%
22:00 +15°C° 0.1 mm 2 mps 606 mmHg 88%
23:00 +15°C° 0.1 mm 2 mps 606 mmHg 88%
Show more

We Need Your Consent

Meteoprog and our Service Providers may store and access personal data such as cookies, device identifiers or other similar technologies on your device and process such data to personalise content and ads, as well as provide social media features and to analyse the traffic.

  • Store and/or access information on your device

    Cookies, device identifiers or other information can be stored or accessed on your device for the purposes indicated above.

  • Personalised ads and content, ad and content measurement, audience insights, and products development

    Ads and content can be personalised based on a profile. More data can be added to better personalise ads and content. Ad and content performance can be measured. Insights about the audience who saw the ads and content can be derived. Such data can be used to develop or improve user’s experience, systems and software.

By clicking ‘I Agree’ you will allow the use of indicated cookies, device identifiers, web beacons or other similar technologies. Your settings can be changed in the browser on your device.

For certain purposes, legitimate interests may be relied on, rather than consent. You can read more about this in our Privacy and Cookie Policy.